TimeMDT,TemperatureF,Dew PointF,Humidity,Sea Level PressureIn,VisibilityMPH,Wind Direction,Wind SpeedMPH,Gust SpeedMPH,PrecipitationIn,Events,Conditions,WindDirDegrees,DateUTC
12:51 AM,51.1,27.0,39,29.82,-9999.0,SSE,4.6,-,N/A,,Unknown,150,2013-07-21 06:51:00
1:51 AM,48.9,28.0,44,29.81,-9999.0,SE,3.5,-,N/A,,Unknown,140,2013-07-21 07:51:00
2:51 AM,42.1,27.0,55,29.84,-9999.0,Calm,Calm,-,N/A,,Unknown,0,2013-07-21 08:51:00
3:51 AM,39.0,27.0,62,29.85,-9999.0,Calm,Calm,-,N/A,,Unknown,0,2013-07-21 09:51:00
4:51 AM,37.0,27.0,67,29.86,-9999.0,Calm,Calm,-,N/A,,Unknown,0,2013-07-21 10:51:00
5:51 AM,34.0,26.1,73,29.88,-9999.0,Calm,Calm,-,N/A,,Unknown,0,2013-07-21 11:51:00
6:51 AM,32.0,26.1,79,29.90,-9999.0,SSE,3.5,-,N/A,,Unknown,150,2013-07-21 12:51:00
7:51 AM,39.9,28.9,65,29.90,-9999.0,Calm,Calm,-,N/A,,Unknown,0,2013-07-21 13:51:00
8:51 AM,50.0,30.0,46,29.91,-9999.0,NE,4.6,-,N/A,,Unknown,50,2013-07-21 14:51:00
9:51 AM,59.0,33.1,38,29.89,-9999.0,Calm,Calm,-,N/A,,Unknown,0,2013-07-21 15:51:00
10:51 AM,69.1,33.1,26,29.86,-9999.0,Calm,Calm,-,N/A,,Unknown,0,2013-07-21 16:51:00
11:51 AM,78.1,30.0,17,29.82,-9999.0,North,4.6,-,N/A,,Unknown,10,2013-07-21 17:51:00
12:51 PM,81.0,7.0,6,29.80,-9999.0,NNW,9.2,16.1,N/A,,Unknown,330,2013-07-21 18:51:00
1:51 PM,84.0,3.9,5,29.78,-9999.0,Variable,5.8,23.0,N/A,,Unknown,0,2013-07-21 19:51:00
2:51 PM,84.9,9.0,6,29.80,-9999.0,Variable,6.9,-,N/A,,Unknown,0,2013-07-21 20:51:00
3:51 PM,84.0,3.0,4,29.81,-9999.0,Variable,6.9,-,N/A,,Unknown,0,2013-07-21 21:51:00
4:51 PM,82.9,12.0,7,29.83,-9999.0,WNW,9.2,-,N/A,,Unknown,300,2013-07-21 22:51:00
5:51 PM,82.9,10.9,7,29.83,-9999.0,West,9.2,-,N/A,,Unknown,280,2013-07-21 23:51:00
6:51 PM,81.0,12.9,8,29.84,-9999.0,Variable,4.6,-,N/A,,Unknown,0,2013-07-22 00:51:00
7:51 PM,80.1,14.0,8,29.82,-9999.0,NW,6.9,-,N/A,,Unknown,310,2013-07-22 01:51:00
8:51 PM,64.9,25.0,22,29.85,-9999.0,Calm,Calm,-,N/A,,Unknown,0,2013-07-22 02:51:00
9:51 PM,55.0,21.9,28,29.88,-9999.0,South,4.6,-,N/A,,Unknown,180,2013-07-22 03:51:00
10:51 PM,52.0,21.9,31,29.87,-9999.0,SSE,3.5,-,N/A,,Unknown,150,2013-07-22 04:51:00
11:51 PM,48.9,21.9,35,29.86,-9999.0,SSE,3.5,-,N/A,,Unknown,160,2013-07-22 05:51:00